Home > Weather > Kitchener > Past weeks

Flag for Canada Past Weather in Kitchener, Ontario, Canada — Yesterday and Last 2 Weeks

Now
50 °F

Clear.


Feels Like: 50 °F
Forecast: 44 / 79 °F
Wind: 2 mph from Northwest

Location: Waterloo Well

Current Time: Jun 30, 2016 at 2:51:13 AM

Latest Report: Jun 30, 2016 at 2:00 AM


Visibility: 9 mi

Pressure: 30.04 "Hg

Humidity: 82%

Dew Point: 45 °F

Location of KitchenerLocation

Past Weather in Kitchener — Graph

°F

Kitchener Temperature Yesterday

Maximum temperature yesterday: 77 °F (at 4:00 PM)
Minimum temperature yesterday: 48 °F (at 6:00 AM)
Average temperature yesterday: 64 °F

High & Low Weather Summary for the Past Weeks

 TemperatureHumidityPressure
High90 °F (Jun 20, 4:00 PM)100% (Jun 19, 6:00 AM)30.29 "Hg (Jun 19, 6:00 AM)
Low46 °F (Jun 15, 5:00 AM)23% (Jun 18, 2:00 PM)29.72 "Hg (Jun 16, 1:00 PM)
Average68 °F60%29.99 "Hg
* Reported Jun 15 1:00 AM — Jun 30 1:00 AM, Kitchener, Weather by CustomWeather, © 2016

Note: Actual official high and low records may vary slightly from our data, if they occured in-between our weather recording intervals... More about our weather records

Advertising

Kitchener Weather History for the Previous 24 Hours

Scroll right to see more
 ConditionsComfort  
Time TempWeatherWind HumidityBarometerVisibility
1:00 AM
Thu, Jun 30
50 °FClear.No wind88%30.03 "Hg9 mi
12:00 AM55 °FClear.2 mph72%30.04 "Hg9 mi
11:00 PM
Wed, Jun 29
57 °FClear.3 mph67%30.03 "Hg9 mi
10:00 PM61 °FSunny.6 mph55%30.02 "Hg9 mi
9:00 PM66 °FSunny.12 mph46%30.02 "Hg9 mi
8:00 PM70 °FSunny.9 mph43%30.00 "Hg9 mi
7:00 PM73 °FSunny.12 mph36%30.00 "Hg9 mi
6:00 PM77 °FSunny.8 mph30%30.00 "Hg9 mi
5:00 PM77 °FSunny.7 mph30%30.00 "Hg9 mi
4:00 PM77 °FPassing clouds.8 mph32%30.00 "Hg9 mi
3:00 PM75 °FSunny.7 mph34%30.01 "Hg9 mi
2:00 PM75 °FScattered clouds.9 mph39%30.01 "Hg9 mi
1:00 PM73 °FScattered clouds.8 mph38%30.02 "Hg9 mi
12:00 PM73 °FScattered clouds.14 mph38%30.02 "Hg9 mi
11:00 AM72 °FSunny.14 mph44%30.02 "Hg9 mi
10:00 AM68 °FSunny.12 mph56%30.01 "Hg9 mi
9:00 AM61 °FPartly sunny.9 mph68%30.04 "Hg9 mi
8:00 AM59 °FOvercast.9 mph72%30.03 "Hg9 mi
7:00 AM54 °FSunny.7 mph82%30.01 "Hg9 mi
6:00 AM48 °FClear.5 mph87%30.00 "Hg9 mi
5:00 AM50 °FPassing clouds.2 mph88%30.00 "Hg9 mi
4:00 AM50 °FPassing clouds.7 mph88%30.01 "Hg9 mi
3:00 AM50 °FClear.8 mph82%30.01 "Hg9 mi
2:00 AM52 °FPassing clouds.9 mph82%30.01 "Hg9 mi
Weather by CustomWeather, © 2016

See weather overviewHow to use our weather pages